2024-205M

Last updated on Wed Nov 20 2024 00:02:05 GMT+0000 (Coordinated Universal Time)

1 61905U 24205M 24324.53619140 .00009532 00000+0 51574-3 0 9991 2 61905 97.4766 36.5745 0014179 256.7509 103.2142 15.14779021 1234
UTC large
Height (km)
Speed (km/s)
/
Latitude / Longitude
Inclination (degrees)
Orbital Period (minutes)
Azimuth
Elevation
Range (km)
Doppler Factor

Next 0 passes for location: London (51.5072 / 0.1276)

Sorry there are no passes over London.